WAT3630 SAZM-SAEZ

Flight info

Callsign WAT3630
Flight time 0h 37m
Altitude 25000
Route PULPA1D PULPA DCT GBE
Aircraft A21N/M-SDE3FGHIRWY/LB1

Departure

Time 2026-04-27 22:01
Airport Ástor Piazzola International Airport (SAZM)

Arrival

Time 2026-04-27 22:38
Airport Ezeiza International Airport - Ministro Pistarini (SAEZ)
Time Latitude Longitude Altitude Speed Heading
2026-04-27 21:37 -37.93323 -57.58082 64 ft 0 kts 302°
2026-04-27 21:56 -37.93322 -57.58083 64 ft 0 kts 302°
2026-04-27 21:57 -37.93321 -57.58084 64 ft 0 kts 311°
2026-04-27 21:57 -37.93302 -57.58093 64 ft 7 kts 352°
2026-04-27 21:57 -37.93254 -57.58072 64 ft 7 kts 37°
2026-04-27 21:57 -37.93209 -57.58026 64 ft 8 kts 39°
2026-04-27 21:58 -37.93156 -57.57980 64 ft 9 kts 27°
2026-04-27 21:58 -37.93091 -57.57991 64 ft 10 kts 316°
2026-04-27 21:58 -37.93047 -57.58065 64 ft 10 kts 305°
2026-04-27 21:58 -37.93003 -57.58145 64 ft 11 kts 304°
2026-04-27 21:59 -37.92960 -57.58229 65 ft 11 kts 302°
2026-04-27 21:59 -37.92941 -57.58321 65 ft 10 kts 271°
2026-04-27 21:59 -37.92918 -57.58329 66 ft 5 kts 91°
2026-04-27 21:59 -37.92932 -57.58277 66 ft 6 kts 121°
2026-04-27 22:00 -37.92959 -57.58226 65 ft 0 kts 124°
2026-04-27 22:00 -37.92959 -57.58225 65 ft 0 kts 124°
2026-04-27 22:00 -37.93060 -57.58034 64 ft 64 kts 123°
2026-04-27 22:00 -37.93446 -57.57281 55 ft 135 kts 123°
2026-04-27 22:01 -37.94058 -57.56091 204 ft 176 kts 126°
2026-04-27 22:01 -37.94735 -57.54789 772 ft 185 kts 126°
2026-04-27 22:01 -37.95460 -57.53397 1452 ft 193 kts 127°
2026-04-27 22:01 -37.96117 -57.51899 2136 ft 204 kts 108°
2026-04-27 22:02 -37.95947 -57.50085 2730 ft 219 kts 63°
2026-04-27 22:02 -37.94968 -57.48622 3496 ft 220 kts 47°
2026-04-27 22:02 -37.93886 -57.47253 4232 ft 224 kts 41°
2026-04-27 22:02 -37.92681 -57.45977 4834 ft 234 kts 39°
2026-04-27 22:03 -37.91389 -57.44579 5306 ft 253 kts 39°
2026-04-27 22:03 -37.89999 -57.43097 5800 ft 271 kts 39°
2026-04-27 22:03 -37.88505 -57.41547 6417 ft 283 kts 33°
2026-04-27 22:03 -37.86681 -57.40697 7172 ft 282 kts 359°
2026-04-27 22:04 -37.84842 -57.41218 7997 ft 275 kts 327°
2026-04-27 22:04 -37.83260 -57.42576 8826 ft 276 kts 322°
2026-04-27 22:04 -37.81656 -57.43913 9579 ft 282 kts 325°
2026-04-27 22:04 -37.79958 -57.45139 10325 ft 287 kts 328°
2026-04-27 22:05 -37.78131 -57.46311 10798 ft 303 kts 330°
2026-04-27 22:05 -37.76155 -57.47468 11159 ft 321 kts 332°
2026-04-27 22:05 -37.74066 -57.48615 11490 ft 339 kts 333°
2026-04-27 22:05 -37.71836 -57.49795 11808 ft 356 kts 334°
2026-04-27 22:06 -37.69506 -57.50999 12339 ft 366 kts 334°
2026-04-27 22:06 -37.67134 -57.52207 13015 ft 370 kts 334°
2026-04-27 22:06 -37.64744 -57.53416 13700 ft 374 kts 334°
2026-04-27 22:06 -37.62326 -57.54635 14349 ft 378 kts 334°
2026-04-27 22:07 -37.59879 -57.55869 15020 ft 381 kts 334°
2026-04-27 22:07 -37.57422 -57.57106 15678 ft 384 kts 334°
2026-04-27 22:07 -37.54919 -57.58364 16325 ft 387 kts 334°
2026-04-27 22:07 -37.52396 -57.59632 16952 ft 390 kts 334°
2026-04-27 22:08 -37.49888 -57.60890 17549 ft 393 kts 334°
2026-04-27 22:08 -37.47345 -57.62165 18125 ft 396 kts 334°
2026-04-27 22:08 -37.44761 -57.63460 18701 ft 400 kts 334°
2026-04-27 22:08 -37.42158 -57.64761 19265 ft 403 kts 333°
2026-04-27 22:09 -37.39565 -57.66058 19819 ft 405 kts 333°
2026-04-27 22:09 -37.36933 -57.67374 20370 ft 408 kts 333°
2026-04-27 22:09 -37.34301 -57.68689 20890 ft 411 kts 333°
2026-04-27 22:09 -37.31633 -57.70020 21400 ft 414 kts 333°
2026-04-27 22:10 -37.28969 -57.71349 21896 ft 416 kts 333°
2026-04-27 22:10 -37.27149 -57.72256 22221 ft 418 kts 333°
2026-04-27 22:10 -37.23548 -57.74050 22828 ft 422 kts 333°
2026-04-27 22:10 -37.20784 -57.75424 23314 ft 424 kts 332°
2026-04-27 22:11 -37.18041 -57.76788 23763 ft 427 kts 332°
2026-04-27 22:11 -37.15299 -57.78152 24219 ft 429 kts 332°
2026-04-27 22:11 -37.12503 -57.79539 24634 ft 431 kts 332°
2026-04-27 22:11 -37.09723 -57.80919 24955 ft 433 kts 332°
2026-04-27 22:12 -37.06918 -57.82310 24992 ft 433 kts 332°
2026-04-27 22:12 -37.04116 -57.83695 24995 ft 432 kts 332°
2026-04-27 22:12 -37.01313 -57.85081 24993 ft 431 kts 332°
2026-04-27 22:12 -36.98533 -57.86456 24991 ft 431 kts 331°
2026-04-27 22:13 -36.95768 -57.87824 24994 ft 431 kts 331°
2026-04-27 22:13 -36.92973 -57.89205 24993 ft 431 kts 332°
2026-04-27 22:13 -36.90164 -57.90591 24996 ft 431 kts 331°
2026-04-27 22:13 -36.87381 -57.91962 24997 ft 431 kts 332°
2026-04-27 22:14 -36.84568 -57.93347 24996 ft 432 kts 331°
2026-04-27 22:14 -36.81766 -57.94728 24996 ft 432 kts 331°
2026-04-27 22:14 -36.78988 -57.96093 24996 ft 432 kts 331°
2026-04-27 22:14 -36.76209 -57.97458 25001 ft 432 kts 331°
2026-04-27 22:15 -36.73405 -57.98835 25008 ft 431 kts 331°
2026-04-27 22:15 -36.70609 -58.00207 25001 ft 432 kts 331°
2026-04-27 22:15 -36.67819 -58.01576 25001 ft 431 kts 331°
2026-04-27 22:15 -36.65032 -58.02942 25002 ft 431 kts 331°
2026-04-27 22:16 -36.62211 -58.04324 25005 ft 431 kts 331°
2026-04-27 22:16 -36.59454 -58.05674 25003 ft 431 kts 331°
2026-04-27 22:16 -36.56655 -58.07043 25004 ft 432 kts 331°
2026-04-27 22:16 -36.53855 -58.08411 25002 ft 431 kts 331°
2026-04-27 22:17 -36.51078 -58.09765 25008 ft 431 kts 331°
2026-04-27 22:17 -36.48253 -58.11143 25008 ft 432 kts 331°
2026-04-27 22:17 -36.45462 -58.12503 25007 ft 432 kts 331°
2026-04-27 22:17 -36.42673 -58.13859 25001 ft 432 kts 331°
2026-04-27 22:18 -36.39862 -58.15226 25006 ft 432 kts 331°
2026-04-27 22:18 -36.37060 -58.16589 25010 ft 432 kts 331°
2026-04-27 22:18 -36.34269 -58.17945 25007 ft 432 kts 331°
2026-04-27 22:18 -36.31466 -58.19306 25011 ft 432 kts 331°
2026-04-27 22:19 -36.28672 -58.20659 25006 ft 432 kts 331°
2026-04-27 22:19 -36.25872 -58.22016 25011 ft 431 kts 331°
2026-04-27 22:19 -36.23090 -58.23361 25015 ft 431 kts 332°
2026-04-27 22:19 -36.20168 -58.24320 24997 ft 444 kts 345°
2026-04-27 22:20 -36.17065 -58.24620 25008 ft 449 kts 350°
2026-04-27 22:20 -36.13939 -58.24752 24701 ft 449 kts 351°
2026-04-27 22:20 -36.10814 -58.24884 23818 ft 453 kts 351°
2026-04-27 22:20 -36.07639 -58.25055 22958 ft 455 kts 351°
2026-04-27 22:21 -36.04504 -58.25253 22324 ft 452 kts 350°
2026-04-27 22:21 -36.01373 -58.25470 21768 ft 447 kts 350°
2026-04-27 22:21 -35.98284 -58.25695 21150 ft 443 kts 350°
2026-04-27 22:21 -35.95237 -58.25928 20562 ft 439 kts 350°
2026-04-27 22:22 -35.92197 -58.26163 19984 ft 435 kts 351°
2026-04-27 22:22 -35.89193 -58.26398 19393 ft 432 kts 351°
2026-04-27 22:22 -35.86221 -58.26631 18818 ft 427 kts 351°
2026-04-27 22:22 -35.83243 -58.26865 18222 ft 424 kts 351°
2026-04-27 22:23 -35.80342 -58.27094 17645 ft 420 kts 351°
2026-04-27 22:23 -35.77409 -58.27326 17000 ft 419 kts 351°
2026-04-27 22:23 -35.74542 -58.27555 16399 ft 416 kts 351°
2026-04-27 22:23 -35.71632 -58.27786 15835 ft 413 kts 351°
2026-04-27 22:24 -35.68795 -58.28008 15312 ft 408 kts 352°
2026-04-27 22:24 -35.65971 -58.28230 14791 ft 403 kts 352°
2026-04-27 22:24 -35.63179 -58.28449 14289 ft 399 kts 352°
2026-04-27 22:24 -35.60428 -58.28666 13771 ft 395 kts 352°
2026-04-27 22:25 -35.57713 -58.28880 13278 ft 391 kts 352°
2026-04-27 22:25 -35.54999 -58.29092 12755 ft 388 kts 352°
2026-04-27 22:25 -35.52327 -58.29303 12255 ft 384 kts 352°
2026-04-27 22:25 -35.49676 -58.29512 11750 ft 381 kts 352°
2026-04-27 22:26 -35.47049 -58.29718 11246 ft 378 kts 352°
2026-04-27 22:26 -35.44421 -58.29924 10852 ft 371 kts 353°
2026-04-27 22:26 -35.41913 -58.30117 10656 ft 358 kts 353°
2026-04-27 22:26 -35.39464 -58.30305 10504 ft 345 kts 352°
2026-04-27 22:27 -35.37085 -58.30489 10354 ft 333 kts 352°
2026-04-27 22:27 -35.34839 -58.30664 10209 ft 321 kts 352°
2026-04-27 22:27 -35.32645 -58.30836 10069 ft 309 kts 352°
2026-04-27 22:27 -35.30514 -58.31003 9761 ft 304 kts 352°
2026-04-27 22:28 -35.28419 -58.31170 9394 ft 302 kts 352°
2026-04-27 22:28 -35.26330 -58.31337 9042 ft 299 kts 352°
2026-04-27 22:28 -35.24262 -58.31499 8702 ft 296 kts 353°
2026-04-27 22:28 -35.22207 -58.31660 8369 ft 292 kts 353°
2026-04-27 22:29 -35.20187 -58.31817 8041 ft 289 kts 353°
2026-04-27 22:29 -35.18203 -58.31972 7717 ft 285 kts 353°
2026-04-27 22:29 -35.16217 -58.32127 7390 ft 281 kts 353°
2026-04-27 22:29 -35.14281 -58.32278 7077 ft 278 kts 353°
2026-04-27 22:30 -35.12368 -58.32427 6756 ft 274 kts 353°
2026-04-27 22:30 -35.10480 -58.32574 6437 ft 271 kts 354°
2026-04-27 22:30 -35.08589 -58.32721 6107 ft 269 kts 353°
2026-04-27 22:30 -35.06734 -58.32864 5776 ft 267 kts 353°
2026-04-27 22:31 -35.04902 -58.33006 5457 ft 265 kts 353°
2026-04-27 22:31 -35.03063 -58.33148 5132 ft 263 kts 353°
2026-04-27 22:31 -35.01231 -58.33290 4838 ft 259 kts 353°
2026-04-27 22:31 -34.99482 -58.33424 4748 ft 246 kts 353°
2026-04-27 22:32 -34.97795 -58.33553 4661 ft 242 kts 354°
2026-04-27 22:32 -34.96103 -58.33528 4520 ft 245 kts
2026-04-27 22:32 -34.94393 -58.33290 4204 ft 245 kts
2026-04-27 22:32 -34.92721 -58.33012 3916 ft 243 kts
2026-04-27 22:33 -34.91048 -58.32731 3622 ft 241 kts
2026-04-27 22:33 -34.89390 -58.32454 3401 ft 234 kts
2026-04-27 22:33 -34.87804 -58.32300 3252 ft 222 kts 348°
2026-04-27 22:33 -34.86424 -58.33022 2999 ft 214 kts 313°
2026-04-27 22:34 -34.85645 -58.34499 2832 ft 206 kts 288°
2026-04-27 22:34 -34.85290 -58.36142 2611 ft 195 kts 279°
2026-04-27 22:34 -34.85052 -58.37711 2281 ft 182 kts 278°
2026-04-27 22:34 -34.84824 -58.39149 2085 ft 165 kts 279°
2026-04-27 22:35 -34.84594 -58.40465 1849 ft 152 kts 280°
2026-04-27 22:35 -34.84369 -58.41701 1672 ft 150 kts 280°
2026-04-27 22:35 -34.84135 -58.42943 1487 ft 149 kts 280°
2026-04-27 22:35 -34.83903 -58.44170 1297 ft 149 kts 279°
2026-04-27 22:36 -34.83669 -58.45396 1106 ft 148 kts 281°
2026-04-27 22:36 -34.83468 -58.46619 897 ft 148 kts 279°
2026-04-27 22:36 -34.83274 -58.47845 674 ft 147 kts 281°
2026-04-27 22:36 -34.83036 -58.49055 491 ft 147 kts 281°
2026-04-27 22:37 -34.82819 -58.50255 289 ft 146 kts 280°
2026-04-27 22:37 -34.82607 -58.51470 148 ft 145 kts 281°
2026-04-27 22:37 -34.82399 -58.52646 71 ft 138 kts 281°
2026-04-27 22:37 -34.82230 -58.53596 71 ft 87 kts 280°
2026-04-27 22:38 -34.82121 -58.54172 71 ft 51 kts 283°
2026-04-27 22:38 -34.82058 -58.54493 68 ft 22 kts 302°
2026-04-27 22:38 -34.81926 -58.54490 69 ft 19 kts 35°
2026-04-27 22:38 -34.81820 -58.54395 71 ft 18 kts 36°
2026-04-27 22:39 -34.81770 -58.54273 73 ft 15 kts 88°
2026-04-27 22:39 -34.81775 -58.54151 77 ft 13 kts 95°
2026-04-27 22:39 -34.81768 -58.54045 79 ft 11 kts 67°
2026-04-27 22:39 -34.81733 -58.53963 82 ft 10 kts 61°
2026-04-27 22:40 -34.81695 -58.53892 83 ft 9 kts 46°
2026-04-27 22:40 -34.81650 -58.53838 84 ft 8 kts 33°
2026-04-27 22:40 -34.81595 -58.53830 85 ft 7 kts 353°
2026-04-27 22:40 -34.81544 -58.53842 86 ft 7 kts 347°
2026-04-27 22:41 -34.81502 -58.53854 87 ft 0 kts 346°